{"data":{"norad_id":57362,"intl_designator":"2023-099AL","name":"STARLINK-6343","alt_names":[],"object_type":"PAYLOAD","status":"ACTIVE","operator":null,"country":"US","launch_date":"2023-07-16","launch_site_code":"AFETR","launch_vehicle":null,"mission":null,"orbit_class":"UNKNOWN","rcs_meters":null,"size_class":null,"mass_kg":null,"dimensions":null,"purposes":["comms"],"wikipedia_slug":null,"has_3d_model":false,"image_url":null,"decayed_at":null,"tle_current":{"epoch":"2026-05-25T03:13:09.380640Z","epoch_age_seconds":66643,"freshness":"FRESH","line1":"1 57362U 23099AL  26145.13413635  .00000703  00000+0  35080-4 0  9999","line2":"2 57362  43.0033 169.6882 0001538 273.6910  86.3766 15.27576603157880","mean_motion":15.27576603,"eccentricity":0.0001538,"inclination_deg":43.0033,"raan_deg":169.6882,"arg_perigee_deg":273.691,"mean_anomaly_deg":86.3766,"bstar":3.508e-5,"rev_number":15788,"period_min":94.266958342514,"perigee_km":482.00401591256,"apogee_km":484.11451988457,"semimajor_km":6861.1962678986,"source":"CELESTRAK","updated_at":"2026-05-25T13:38:18.293024Z"}}}